User: anonymous   Login
Location: Dead Woman Crossing
(43.5369°N, 106.3228°W)
Time: 09:50:58
(UTC+00:00)
Language:

COSMOS 2251 DEB - Orbit

View from above orbital plane
View from above orbital plane
View from above satellite
View from above satellite

Ground track
Ground track

The orbit data is extracted from the following two-line orbital elements,

1 36073U 93036AYL 22329.37910012  .00000283  00000-0  11352-3 0  9999
2 36073  74.0312 199.4111 0025918 182.0443 178.0607 14.32596003542510
Epoch (UTC): 25 November 2022 09:05:54
Eccentricity: 0.0025918
inclination: 74.0312°
perigee height: 764 km
apogee height: 801 km
right ascension of ascending node: 199.4111°
argument of perigee: 182.0443°
revolutions per day: 14.32596003
mean anomaly at epoch: 178.0607°
orbit number at epoch: 54251

The dashed part of the orbit path shows where the satellite is in the earth's shadow,  

DLR